1511488800.63,59247,8.31,73652.8,-3.99,-29.29,-27.77,0,*5B
1511488801.85,59248,8.31,73654.3,-3.99,-29.23,-27.77,0,*5E
1511488803.11,59249,8.31,73654.5,-3.99,-29.13,-27.61,0,*5B
1511488804.35,59250,8.31,73654.0,-3.99,-29.29,-27.71,0,*5B
1511488805.6,59251,8.31,73652.0,-3.99,-29.45,-28.05,0,*5C
1511488806.84,59252,8.31,73652.0,-3.99,-29.29,-27.89,0,*5E
1511488808.06,59253,8.31,73654.8,-3.99,-29.23,-27.71,0,*52
1511488809.29,59254,8.31,73654.3,-4.01,-29.07,-27.77,0,*53
1511488810.56,59255,8.31,73654.3,-3.97,-29.07,-27.61,0,*5D
1511488811.81,59256,8.31,73656.3,-3.99,-28.91,-27.55,0,*59
1511488813.07,59257,8.31,73652.8,-3.99,-29.13,-27.61,0,*54
1511488814.31,59258,8.31,73652.3,-3.99,-29.29,-27.71,0,*53
1511488815.58,59259,8.31,73652.8,-4.01,-29.01,-27.51,0,*5C
1511488816.81,59260,8.31,73656.5,-3.99,-29.13,-27.71,0,*51
1511488818.06,59261,8.31,73656.3,-3.99,-29.39,-27.93,0,*54
1511488819.3,59262,8.31,73652.8,-3.99,-29.13,-27.55,0,*55
1511488820.56,59263,8.31,73658.8,-4.01,-29.01,-27.51,0,*55
1511488821.83,59264,8.31,73654.8,-4.01,-29.17,-27.67,0,*50
1511488823.07,59265,8.31,73654.5,-3.99,-29.29,-27.71,0,*5D
1511488824.31,59266,8.31,73656.0,-3.99,-29.07,-27.61,0,*53
1511488825.61,59267,8.31,73658.3,-3.97,-28.79,-27.35,0,*55
1511488826.87,59268,8.31,73654.0,-3.99,-28.75,-27.23,0,*5F
1511488828.11,59269,8.31,73656.3,-3.99,-29.23,-27.61,0,*5A
1511488829.36,59270,8.31,73654.0,-3.99,-29.23,-27.61,0,*52
1511488830.6,59271,8.31,73652.8,-3.99,-29.13,-27.55,0,*57
1511488831.86,59272,8.31,73654.0,-3.97,-28.63,-27.07,0,*5B
1511488833.16,59273,8.31,73654.8,-3.97,-28.79,-27.35,0,*50
1511488834.43,59274,8.31,73652.8,-3.97,-28.97,-27.35,0,*57
1511488835.7,59275,8.31,73654.3,-3.97,-29.07,-27.35,0,*5E
1511488837.0,59276,8.31,73658.5,-3.97,-28.91,-27.23,0,*54
1511488838.29,59277,8.31,73654.0,-3.97,-28.75,-27.19,0,*56
1511488839.55,59278,8.31,73654.3,-3.97,-28.63,-27.07,0,*51
1511488840.8,59279,8.31,73654.8,-3.95,-28.91,-27.29,0,*53
1511488842.04,59280,8.31,73658.0,-3.95,-29.01,-27.51,0,*52
1511488843.33,59281,8.31,73658.3,-3.97,-28.79,-27.19,0,*53
1511488844.58,59282,8.31,73656.3,-3.97,-28.37,-26.87,0,*5C
1511488845.85,59283,8.31,73654.3,-3.97,-28.63,-27.03,0,*51
1511488847.14,59284,8.31,73652.3,-3.97,-28.91,-27.39,0,*52
1511488848.41,59285,8.31,73658.0,-3.95,-28.91,-27.35,0,*5D
1511488849.65,59286,8.31,73658.3,-3.95,-28.53,-26.97,0,*59
1511488850.95,59287,8.31,73656.3,-3.97,-28.79,-27.19,0,*55
1511488852.16,59288,8.31,73656.5,-3.95,-28.85,-27.29,0,*58
1511488853.43,59289,8.31,73654.8,-3.97,-28.97,-27.45,0,*52
1511488854.72,59290,8.31,73652.8,-3.97,-28.91,-27.19,0,*55
1511488856.01,59291,8.31,73654.0,-3.97,-28.75,-27.19,0,*5E
1511488857.28,59292,8.31,73658.0,-3.97,-28.59,-27.03,0,*58
1511488858.58,59293,8.31,73652.5,-3.97,-28.79,-27.35,0,*5E
1511488859.87,59294,8.31,73658.5,-3.97,-28.63,-27.19,0,*5C
1511488861.16,59295,8.31,73658.8,-3.97,-28.79,-27.39,0,*54
1511488862.45,59296,8.31,73656.3,-3.97,-28.75,-27.19,0,*59
1511488863.74,59297,8.31,73654.0,-3.97,-28.75,-27.23,0,*51
1511488865.04,59298,8.31,73656.0,-3.97,-28.79,-27.23,0,*52
1511488866.28,59299,8.31,73654.0,-3.95,-28.85,-27.35,0,*55
1511488867.55,59300,8.31,73656.8,-3.97,-28.97,-27.39,0,*59
1511488868.84,59301,8.31,73656.5,-3.97,-28.43,-26.93,0,*50
1511488870.1,59302,8.31,73656.0,-3.97,-28.59,-27.07,0,*54
1511488871.35,59303,8.31,73654.3,-3.95,-28.53,-26.97,0,*55
1511488872.59,59304,8.31,73656.5,-3.95,-28.53,-26.97,0,*52
1511488873.87,59305,8.31,73656.3,-3.97,-28.47,-26.93,0,*50
1511488875.14,59306,8.31,73656.0,-3.97,-28.37,-26.77,0,*5E
1511488876.38,59307,8.31,73652.3,-3.95,-28.43,-26.87,0,*51
1511488877.64,59308,8.31,73658.5,-3.97,-28.47,-27.03,0,*55
1511488878.87,59309,8.31,73652.5,-3.95,-28.31,-26.71,0,*53
1511488880.17,59310,8.31,73658.0,-3.97,-28.25,-26.71,0,*5C
1511488881.43,59311,8.31,73654.3,-3.95,-28.05,-26.55,0,*5B
1511488882.69,59312,8.31,73656.3,-3.97,-28.09,-26.61,0,*51
1511488883.96,59313,8.31,73656.5,-3.97,-28.05,-26.61,0,*5C
1511488885.23,59314,8.31,73656.8,-3.95,-28.21,-26.71,0,*5E
1511488886.47,59315,8.31,73658.3,-3.95,-28.21,-26.87,0,*56
1511488887.67,59316,8.31,73656.0,-3.95,-27.71,-26.23,0,*51
1511488888.88,59317,8.31,73654.3,-3.95,-28.15,-26.65,0,*5F
1511488890.12,59318,8.31,73652.8,-3.95,-28.37,-26.81,0,*5A
1511488891.34,59319,8.31,73656.5,-3.95,-28.37,-26.87,0,*5D
1511488892.57,59320,8.31,73656.8,-3.95,-28.43,-26.87,0,*54
1511488893.81,59321,8.31,73656.8,-3.95,-28.37,-26.97,0,*57
1511488895.05,59322,8.31,73656.0,-3.95,-28.37,-26.97,0,*54
1511488896.29,59323,8.31,73658.0,-3.95,-28.37,-26.97,0,*55
1511488897.58,59324,8.31,73652.8,-3.93,-28.21,-26.81,0,*54
1511488898.82,59325,8.31,73654.5,-3.95,-27.99,-26.65,0,*55
1511488900.03,59326,8.31,73654.3,-3.95,-28.31,-26.87,0,*57
1511488901.26,59327,8.31,73654.5,-3.95,-28.31,-26.97,0,*57
1511488902.5,59328,8.31,73654.8,-3.95,-28.05,-26.65,0,*52
1511488903.74,59329,8.31,73654.5,-3.95,-28.15,-26.81,0,*58
1511488904.98,59330,8.31,73652.0,-3.95,-28.05,-26.65,0,*5B
1511488906.21,59331,8.31,73654.8,-3.95,-27.89,-26.55,0,*52
1511488907.47,59332,8.31,73654.5,-3.95,-27.99,-26.71,0,*56
1511488908.71,59333,8.31,73658.0,-3.93,-27.71,-26.39,0,*5B
1511488909.97,59334,8.31,73656.5,-3.95,-28.05,-26.71,0,*5A
1511488911.23,59335,8.31,73656.3,-3.93,-28.15,-26.81,0,*53
1511488912.49,59336,8.31,73652.8,-3.93,-28.21,-26.87,0,*51
1511488913.75,59337,8.31,73652.8,-3.93,-28.15,-26.71,0,*5E
1511488914.96,59338,8.31,73656.0,-3.95,-27.89,-26.65,0,*58
1511488916.26,59339,8.31,73658.3,-3.97,-27.61,-26.29,0,*55
1511488917.47,59340,8.31,73658.8,-3.95,-27.67,-26.23,0,*55
1511488918.68,59341,8.31,73658.3,-3.95,-27.71,-26.49,0,*5F
1511488919.94,59342,8.31,73656.3,-3.93,-27.89,-26.71,0,*56
1511488921.2,59343,8.31,73658.0,-3.93,-27.67,-26.55,0,*51
1511488922.45,59344,8.31,73652.5,-3.93,-27.71,-26.55,0,*51
1511488923.73,59345,8.31,73656.5,-3.93,-27.83,-26.55,0,*5D
1511488924.99,59346,8.31,73654.5,-3.93,-27.89,-26.71,0,*52
1511488926.22,59347,8.31,73654.5,-3.93,-27.67,-26.49,0,*58
1511488927.48,59348,8.31,73656.3,-3.93,-27.67,-26.55,0,*5A
1511488928.72,59349,8.31,73652.8,-3.93,-27.67,-26.49,0,*56
1511488929.95,59350,8.31,73656.8,-3.93,-27.67,-26.49,0,*5E
1511488931.19,59351,8.31,73660.0,-3.93,-27.55,-26.39,0,*59
1511488932.45,59352,8.31,73654.8,-3.93,-27.83,-26.65,0,*58
1511488933.66,59353,8.31,73656.8,-3.91,-27.67,-26.65,0,*51
1511488934.9,59354,8.31,73658.0,-3.91,-27.61,-26.49,0,*5E
1511488936.13,59355,8.31,73656.8,-3.93,-27.55,-26.39,0,*5D
1511488937.39,59356,8.31,73656.5,-3.93,-27.55,-26.71,0,*52
1511488938.63,59357,8.31,73656.3,-3.91,-27.61,-26.45,0,*51
1511488939.86,59358,8.31,73656.3,-3.93,-27.55,-26.49,0,*57
1511488941.11,59359,8.31,73656.0,-3.93,-27.29,-26.03,0,*53
1511488942.39,59360,8.31,73654.5,-3.93,-27.39,-26.55,0,*5B
1511488943.63,59361,8.31,73656.8,-3.91,-27.61,-26.49,0,*58
1511488944.88,59362,8.31,73654.5,-3.93,-27.39,-26.23,0,*58
1511488946.15,59363,8.31,73658.3,-3.91,-27.45,-26.33,0,*51
1511488947.41,59364,8.31,73658.3,-3.91,-27.35,-26.33,0,*51
1511488948.7,59365,8.31,73656.0,-3.89,-27.23,-26.13,0,*5C
1511488949.95,59366,8.31,73658.0,-3.91,-27.35,-26.33,0,*53
1511488951.19,59367,8.31,73654.8,-3.91,-27.39,-26.45,0,*5F
1511488952.42,59368,8.31,73654.8,-3.91,-27.45,-26.45,0,*5B
1511488953.68,59369,8.31,73654.8,-3.93,-27.35,-26.39,0,*54
1511488954.91,59370,8.31,73656.8,-3.93,-27.51,-26.65,0,*57
1511488956.17,59371,8.31,73654.0,-3.93,-27.39,-26.65,0,*58
1511488957.4,59372,8.31,73654.0,-3.91,-27.45,-26.49,0,*5C
1511488958.66,59373,8.31,73652.0,-3.93,-27.39,-26.45,0,*58
1511488959.9,59374,8.31,73654.5,-3.91,-27.07,-26.17,0,*57
1511488961.14,59375,8.31,73656.0,-3.91,-27.29,-26.33,0,*5C
1511488962.36,59376,8.31,73656.0,-3.91,-27.29,-26.61,0,*58
1511488963.59,59377,8.31,73652.8,-3.91,-27.13,-26.33,0,*57
1511488964.85,59378,8.31,73656.5,-3.93,-27.13,-26.17,0,*5C
1511488966.06,59379,8.31,73654.0,-3.91,-27.13,-26.45,0,*58
1511488967.27,59380,8.31,73652.8,-3.91,-27.29,-26.49,0,*5B
1511488968.55,59381,8.31,73658.0,-3.93,-27.39,-26.71,0,*52
1511488969.78,59382,8.31,73656.5,-3.91,-27.35,-26.65,0,*5A
1511488971.01,59383,8.31,73654.5,-3.91,-27.35,-26.61,0,*5F
1511488972.29,59384,8.31,73656.3,-3.93,-27.35,-26.71,0,*5B
1511488973.56,59385,8.31,73658.0,-3.93,-27.19,-26.55,0,*52
1511488974.77,59386,8.31,73658.3,-3.91,-27.29,-26.65,0,*53
1511488976.03,59387,8.31,73652.3,-3.91,-26.93,-26.17,0,*57
1511488977.33,59388,8.31,73654.5,-3.93,-26.81,-26.17,0,*59
1511488978.54,59389,8.31,73658.5,-3.91,-27.07,-26.45,0,*52
1511488979.79,59390,8.31,73658.5,-3.93,-27.19,-26.65,0,*55
1511488981.04,59391,8.31,73656.8,-3.93,-27.19,-26.65,0,*54
1511488982.27,59392,8.31,73658.3,-3.93,-27.13,-26.49,0,*53
1511488983.51,59393,8.31,73652.0,-3.91,-26.97,-26.49,0,*5D
1511488984.78,59394,8.31,73654.0,-3.93,-26.97,-26.39,0,*5F
1511488986.01,59395,8.31,73656.3,-3.91,-26.97,-26.45,0,*57
1511488987.28,59396,8.31,73656.5,-3.93,-26.81,-26.23,0,*51
1511488988.54,59397,8.31,73656.3,-3.93,-26.49,-25.97,0,*58
1511488989.81,59398,8.31,73654.3,-3.91,-26.77,-26.17,0,*53
1511488991.04,59399,8.31,73656.0,-3.91,-26.97,-26.49,0,*57
1511488992.31,59400,8.31,73660.5,-3.91,-26.77,-26.33,0,*53
1511488993.55,59401,8.31,73652.8,-3.91,-26.65,-26.33,0,*51
1511488994.79,59402,8.31,73656.0,-3.91,-26.77,-26.45,0,*50
1511488996.06,59403,8.31,73658.5,-3.93,-26.97,-26.65,0,*5F
1511488997.32,59404,8.31,73658.3,-3.93,-26.77,-26.61,0,*52
1511488998.55,59405,8.31,73654.8,-3.91,-26.61,-26.17,0,*57
1511488999.77,59406,8.31,73652.5,-3.91,-26.65,-26.45,0,*57
1511489001.0,59407,8.31,73656.0,-3.91,-26.77,-26.49,0,*59
1511489002.21,59408,8.31,73654.0,-3.91,-26.65,-26.45,0,*59
1511489003.45,59409,8.31,73654.3,-3.91,-26.77,-26.49,0,*57
1511489004.66,59410,8.31,73656.0,-3.91,-26.65,-26.49,0,*5C
1511489005.87,59411,8.31,73654.5,-3.91,-26.65,-26.45,0,*51
1511489007.14,59412,8.31,73652.8,-3.89,-26.77,-26.49,0,*54
1511489008.41,59413,8.31,73652.0,-3.89,-26.77,-26.65,0,*5B
1511489009.67,59414,8.31,73654.3,-3.89,-26.45,-26.33,0,*5E
1511489010.94,59415,8.31,73658.8,-3.89,-26.45,-26.33,0,*5F
1511489012.17,59416,8.31,73654.5,-3.89,-26.49,-26.45,0,*51
1511489013.44,59417,8.31,73652.0,-3.89,-26.45,-26.17,0,*5B
1511489014.73,59418,8.31,73652.8,-3.89,-26.33,-26.13,0,*51
1511489015.95,59419,8.31,73652.3,-3.87,-26.39,-26.39,0,*5C
1511489017.19,59420,8.31,73654.3,-3.89,-26.61,-26.65,0,*5C
1511489018.39,59421,8.31,73656.0,-3.87,-26.61,-26.61,0,*57
1511489019.63,59422,8.31,73652.3,-3.89,-26.45,-26.61,0,*5C
1511489020.87,59423,8.31,73652.0,-3.89,-26.65,-26.65,0,*5B
1511489022.17,59424,8.31,73656.5,-3.89,-26.33,-26.33,0,*5C
1511489023.47,59425,8.31,73652.5,-3.89,-26.33,-26.33,0,*5D
1511489024.73,59426,8.31,73652.3,-3.89,-26.33,-26.49,0,*53
1511489025.97,59427,8.31,73652.8,-3.89,-26.45,-26.49,0,*53
1511489027.26,59428,8.31,73654.0,-3.89,-26.29,-26.33,0,*5B
1511489028.5,59429,8.31,73654.8,-3.89,-26.49,-26.65,0,*5F
1511489029.77,59430,8.31,73654.0,-3.89,-26.49,-26.77,0,*54
1511489031.03,59431,8.31,73652.8,-3.89,-26.61,-26.81,0,*56
1511489032.27,59432,8.31,73658.3,-3.89,-26.45,-26.61,0,*5D
1511489033.48,59433,8.31,73654.0,-3.87,-26.39,-26.45,0,*5F
1511489034.74,59434,8.31,73654.8,-3.89,-25.91,-25.97,0,*5B
1511489036.0,59435,8.31,73648.8,-3.87,-26.29,-26.55,0,*59
1511489037.27,59436,8.31,73654.0,-3.89,-26.33,-26.65,0,*5C
1511489038.53,59437,8.31,73654.8,-3.89,-26.17,-26.49,0,*55
1511489039.74,59438,8.31,73654.3,-3.87,-25.91,-26.07,0,*53
1511489040.97,59439,8.31,73652.8,-3.87,-26.29,-26.61,0,*52
1511489042.23,59440,8.31,73654.8,-3.89,-26.45,-26.77,0,*5F
1511489043.47,59441,8.31,73652.3,-3.87,-26.39,-26.77,0,*5B
1511489044.68,59442,8.31,73652.5,-3.87,-26.07,-26.39,0,*5F
1511489045.95,59443,8.31,73656.0,-3.89,-26.33,-26.61,0,*5A
1511489047.21,59444,8.31,73654.8,-3.89,-26.17,-26.61,0,*5B
1511489048.46,59445,8.31,73652.8,-3.87,-25.71,-26.03,0,*53
1511489049.72,59446,8.31,73652.8,-3.89,-26.17,-26.65,0,*5D
1511489050.96,59447,8.31,73652.8,-3.87,-25.87,-26.29,0,*50
1511489052.17,59448,8.31,73650.3,-3.87,-25.91,-26.39,0,*59
1511489053.43,59449,8.31,73652.3,-3.89,-26.29,-26.65,0,*5F
1511489054.66,59450,8.31,73650.5,-3.87,-26.23,-26.71,0,*56
1511489055.87,59451,8.31,73654.5,-3.87,-25.91,-26.39,0,*51
1511489057.15,59452,8.31,73652.5,-3.89,-25.75,-26.17,0,*5A
1511489058.39,59453,8.31,73650.8,-3.87,-26.13,-26.61,0,*57
1511489059.64,59454,8.31,73652.0,-3.87,-26.13,-26.55,0,*57
1511489060.87,59455,8.31,73650.8,-3.87,-26.23,-26.77,0,*55
1511489062.1,59456,8.31,73650.3,-3.87,-26.07,-26.55,0,*50
1511489063.33,59457,8.31,73652.3,-3.83,-26.07,-26.71,0,*53
1511489064.57,59458,8.31,73652.0,-3.87,-26.17,-26.87,0,*50
1511489065.77,59459,8.31,73652.5,-3.87,-26.23,-26.87,0,*56
1511489067.01,59460,8.31,73654.3,-3.87,-26.03,-26.55,0,*51
1511489068.21,59461,8.31,73652.3,-3.87,-25.87,-26.45,0,*5E
1511489069.45,59462,8.31,73648.0,-3.83,-26.07,-26.81,0,*5A
1511489070.69,59463,8.31,73650.3,-3.83,-26.03,-26.81,0,*5F
1511489071.9,59464,8.31,73654.3,-3.83,-25.87,-26.65,0,*5D
1511489073.11,59465,8.31,73650.3,-3.83,-25.87,-26.65,0,*5C
1511489074.35,59466,8.31,73648.8,-3.83,-25.97,-26.65,0,*5E
1511489075.58,59467,8.31,73652.5,-3.87,-26.07,-26.71,0,*54
1511489076.82,59468,8.31,73652.0,-3.83,-26.03,-26.71,0,*5B
1511489078.07,59469,8.31,73652.5,-3.87,-25.75,-26.55,0,*5A
1511489079.3,59470,8.31,73652.8,-3.87,-25.91,-26.71,0,*5E
1511489080.55,59471,8.31,73650.8,-3.83,-25.81,-26.55,0,*5C
1511489081.76,59472,8.31,73652.0,-3.83,-25.39,-26.23,0,*5D
1511489083.03,59473,8.31,73650.3,-3.81,-25.55,-26.39,0,*5F
1511489084.28,59474,8.31,73648.5,-3.83,-25.81,-26.71,0,*5F
1511489085.57,59475,8.31,73650.3,-3.81,-25.97,-26.71,0,*5B
1511489086.86,59476,8.31,73654.5,-3.81,-25.97,-26.81,0,*57
1511489088.1,59477,8.31,73650.3,-3.81,-25.49,-26.39,0,*56
1511489089.36,59478,8.31,73648.8,-3.81,-25.97,-26.87,0,*5F
1511489090.58,59479,8.31,73650.5,-3.83,-26.03,-26.87,0,*52
1511489091.81,59480,8.31,73650.0,-3.83,-25.87,-26.71,0,*52
1511489093.07,59481,8.31,73648.8,-3.81,-25.55,-26.49,0,*55
1511489094.35,59482,8.31,73654.0,-3.81,-25.81,-26.71,0,*54
1511489095.61,59483,8.31,73650.5,-3.83,-25.71,-26.71,0,*58
1511489096.86,59484,8.31,73654.3,-3.83,-25.81,-26.71,0,*50
1511489098.07,59485,8.31,73650.0,-3.83,-25.87,-26.87,0,*5E
1511489099.34,59486,8.31,73652.5,-3.81,-25.97,-26.87,0,*5E
1511489100.63,59487,8.31,73650.0,-3.81,-25.71,-26.81,0,*51
1511489101.86,59488,8.31,73650.3,-3.83,-25.65,-26.71,0,*56
1511489103.12,59489,8.31,73650.0,-3.81,-25.71,-26.65,0,*55
1511489104.38,59490,8.31,73654.3,-3.83,-25.71,-26.71,0,*5A
1511489105.64,59491,8.31,73652.3,-3.83,-25.71,-26.71,0,*5B
1511489106.85,59492,8.31,73652.5,-3.83,-25.49,-26.49,0,*58
1511489108.11,59493,8.31,73650.8,-3.81,-25.65,-26.71,0,*5E
1511489109.32,59494,8.31,73654.3,-3.83,-25.65,-26.65,0,*5E
1511489110.57,59495,8.31,73654.3,-3.81,-25.81,-26.87,0,*5B
1511489111.83,59496,8.31,73654.8,-3.81,-25.65,-26.81,0,*54
1511489113.07,59497,8.31,73654.3,-3.81,-25.49,-26.65,0,*51
1511489114.33,59498,8.31,73652.3,-3.81,-25.81,-26.87,0,*56
1511489115.62,59499,8.31,73648.8,-3.81,-25.71,-26.81,0,*5E
1511489116.88,59500,8.31,73650.5,-3.81,-25.81,-26.87,0,*56
1511489118.17,59501,8.31,73654.8,-3.81,-25.81,-26.81,0,*51
1511489119.43,59502,8.31,73648.8,-3.79,-25.75,-26.97,0,*59
1511489120.69,59503,8.31,73656.5,-3.79,-25.75,-26.97,0,*58
1511489121.98,59504,8.31,73654.8,-3.81,-25.55,-26.81,0,*5D
1511489123.21,59505,8.31,73650.3,-3.83,-25.81,-27.03,0,*5C
1511489124.5,59506,8.31,73648.0,-3.81,-25.81,-26.97,0,*51
1511489125.75,59507,8.31,73650.0,-3.81,-25.35,-26.55,0,*51
1511489126.98,59508,8.31,73648.8,-3.81,-25.35,-26.65,0,*5D
1511489128.19,59509,8.31,73648.8,-3.79,-25.49,-26.87,0,*5C
1511489129.42,59510,8.31,73652.0,-3.79,-25.61,-26.81,0,*58
1511489130.65,59511,8.31,73650.0,-3.79,-25.65,-26.93,0,*5E
1511489131.89,59512,8.31,73650.8,-3.79,-25.61,-26.97,0,*5D
1511489133.14,59513,8.31,73652.5,-3.79,-25.29,-26.77,0,*5E
1511489134.4,59514,8.31,73652.8,-3.79,-25.45,-26.81,0,*5A
1511489135.6,59515,8.31,73648.5,-3.79,-25.35,-26.65,0,*56
1511489136.83,59516,8.31,73650.3,-3.79,-25.61,-26.97,0,*59
1511489138.06,59517,8.31,73650.3,-3.79,-25.03,-26.49,0,*5F
1511489139.29,59518,8.31,73650.5,-3.79,-25.29,-26.65,0,*56
1511489140.52,59519,8.31,73648.3,-3.79,-25.35,-26.77,0,*59
1511489141.77,59520,8.31,73654.5,-3.79,-25.45,-26.77,0,*54
1511489142.98,59521,8.31,73648.3,-3.79,-25.65,-27.07,0,*51
1511489144.21,59522,8.31,73648.5,-3.79,-25.65,-26.97,0,*5A
1511489145.45,59523,8.31,73652.5,-3.79,-25.49,-26.93,0,*51
1511489146.68,59524,8.31,73652.5,-3.79,-25.49,-26.97,0,*52
1511489147.91,59525,8.31,73654.3,-3.77,-25.65,-27.13,0,*5E
1511489149.12,59526,8.31,73650.3,-3.79,-25.61,-27.07,0,*52
1511489150.35,59527,8.31,73652.8,-3.79,-25.75,-27.13,0,*53
1511489151.56,59528,8.31,73650.0,-3.79,-25.65,-27.07,0,*58
1511489152.79,59529,8.31,73652.8,-3.79,-25.29,-26.65,0,*54
1511489154.02,59530,8.31,73650.5,-3.79,-25.35,-26.81,0,*5B
1511489155.27,59531,8.31,73652.5,-3.79,-25.45,-26.93,0,*5E
1511489156.54,59532,8.31,73652.3,-3.77,-25.45,-26.93,0,*53
1511489157.79,59533,8.31,73650.3,-3.77,-25.35,-26.93,0,*55
1511489159.05,59534,8.31,73654.5,-3.79,-25.29,-26.81,0,*52
1511489160.28,59535,8.31,73652.5,-3.77,-25.49,-27.07,0,*54
1511489161.51,59536,8.31,73650.5,-3.79,-25.35,-26.93,0,*5E
1511489162.73,59537,8.31,73650.5,-3.77,-25.19,-26.65,0,*56
1511489164.01,59538,8.31,73648.5,-3.77,-25.29,-26.97,0,*57
1511489165.22,59539,8.31,73650.5,-3.79,-25.49,-27.13,0,*53
1511489166.45,59540,8.31,73652.8,-3.79,-25.45,-27.07,0,*54
1511489167.7,59541,8.31,73650.8,-3.77,-25.35,-26.81,0,*53
1511489168.95,59542,8.31,73652.8,-3.77,-25.19,-26.77,0,*57
1511489170.23,59543,8.31,73648.5,-3.77,-25.45,-26.97,0,*51
1511489171.48,59544,8.31,73654.5,-3.77,-25.35,-26.93,0,*55
1511489172.74,59545,8.31,73650.8,-3.77,-25.19,-26.77,0,*50
1511489173.99,59546,8.31,73654.3,-3.77,-25.35,-26.97,0,*53
1511489175.22,59547,8.31,73652.3,-3.77,-25.49,-27.13,0,*54
1511489176.45,59548,8.31,73652.0,-3.77,-25.35,-27.07,0,*55
1511489177.67,59549,8.31,73648.0,-3.77,-25.35,-27.13,0,*51
1511489178.95,59550,8.31,73652.8,-3.77,-25.29,-26.93,0,*5D
1511489180.21,59551,8.31,73650.8,-3.77,-25.49,-27.19,0,*59
1511489181.47,59552,8.31,73650.8,-3.77,-25.49,-27.35,0,*54
1511489182.72,59553,8.31,73652.5,-3.79,-25.45,-27.19,0,*59
1511489183.97,59554,8.31,73652.5,-3.77,-25.35,-26.97,0,*50
1511489185.25,59555,8.31,73654.3,-3.77,-25.29,-26.97,0,*5C
1511489186.53,59556,8.31,73650.5,-3.77,-25.29,-26.97,0,*5F
1511489187.78,59557,8.31,73650.3,-3.77,-25.45,-27.13,0,*59
1511489189.01,59558,8.31,73656.5,-3.75,-25.29,-27.03,0,*5F
1511489190.26,59559,8.31,73654.3,-3.75,-25.55,-27.29,0,*5D
1511489191.49,59560,8.31,73650.3,-3.75,-25.61,-27.39,0,*51
1511489192.74,59561,8.31,73652.5,-3.75,-25.45,-27.23,0,*5D
1511489193.94,59562,8.31,73652.3,-3.75,-25.23,-27.07,0,*58
1511489195.15,59563,8.31,73648.8,-3.75,-25.23,-27.03,0,*5D
1511489196.38,59564,8.31,73650.3,-3.75,-25.29,-27.03,0,*50
1511489197.61,59565,8.31,73652.0,-3.75,-25.39,-27.23,0,*52
1511489198.85,59566,8.31,73648.5,-3.75,-25.29,-27.03,0,*52
1511489200.08,59567,8.31,73652.3,-3.75,-25.13,-26.93,0,*52
1511489201.28,59568,8.31,73650.8,-3.75,-25.23,-27.07,0,*52
1511489202.53,59569,8.31,73650.0,-3.77,-25.35,-27.19,0,*59
1511489203.74,59570,8.31,73654.5,-3.75,-25.23,-27.07,0,*5B
1511489204.94,59571,8.31,73652.0,-3.75,-25.23,-27.03,0,*5E
1511489206.15,59572,8.31,73650.5,-3.75,-25.23,-27.13,0,*5C
1511489207.37,59573,8.31,73646.5,-3.75,-25.29,-27.13,0,*57
1511489208.58,59574,8.31,73650.5,-3.75,-25.09,-26.87,0,*5E
1511489209.81,59575,8.31,73648.5,-3.73,-25.09,-27.07,0,*50
1511489211.04,59576,8.31,73652.8,-3.75,-25.29,-27.13,0,*52
1511489212.29,59577,8.31,73650.8,-3.75,-25.29,-27.23,0,*50
1511489213.51,59578,8.31,73652.3,-3.75,-25.39,-27.29,0,*54
1511489214.8,59579,8.31,73650.0,-3.73,-25.55,-27.39,0,*58
1511489216.05,59580,8.31,73650.0,-3.77,-25.49,-27.45,0,*5C
1511489217.26,59581,8.31,73648.5,-3.75,-25.13,-27.07,0,*56
1511489218.52,59582,8.31,73650.5,-3.73,-25.23,-27.23,0,*56
1511489219.78,59583,8.31,73650.8,-3.75,-25.55,-27.39,0,*5B
1511489221.03,59584,8.31,73648.8,-3.75,-25.45,-27.39,0,*5D
1511489222.3,59585,8.31,73648.8,-3.73,-25.39,-27.39,0,*51
1511489223.55,59586,8.31,73648.5,-3.75,-25.55,-27.45,0,*55
1511489224.76,59587,8.31,73652.0,-3.75,-25.39,-27.29,0,*54
1511489226.02,59588,8.31,73650.0,-3.75,-25.45,-27.39,0,*51
1511489227.25,59589,8.31,73648.8,-3.75,-25.29,-27.29,0,*5B
1511489228.5,59590,8.31,73650.3,-3.75,-25.29,-27.23,0,*59
1511489229.76,59591,8.31,73648.0,-3.75,-25.55,-27.45,0,*53
1511489231.02,59592,8.31,73650.5,-3.75,-25.29,-27.23,0,*5B
1511489232.26,59593,8.31,73652.3,-3.77,-25.35,-27.45,0,*55
1511489233.52,59594,8.31,73650.5,-3.77,-25.49,-27.61,0,*5F
1511489234.78,59595,8.31,73652.0,-3.77,-25.65,-27.61,0,*50
1511489236.01,59596,8.31,73648.0,-3.75,-25.29,-27.29,0,*55
1511489237.24,59597,8.31,73648.5,-3.75,-25.23,-27.23,0,*54
1511489238.48,59598,8.31,73650.0,-3.75,-25.55,-27.55,0,*5B
1511489239.71,59599,8.31,73648.8,-3.75,-25.39,-27.45,0,*51
1511489240.94,59600,8.31,73650.0,-3.77,-25.49,-27.51,0,*52
1511489242.17,59601,8.31,73648.0,-3.75,-25.29,-27.29,0,*58
1511489243.38,59602,8.31,73648.3,-3.75,-25.23,-27.29,0,*51
1511489244.63,59603,8.31,73652.8,-3.77,-25.49,-27.45,0,*54
1511489245.91,59604,8.31,73650.5,-3.77,-25.45,-27.61,0,*59
1511489247.17,59605,8.31,73646.5,-3.75,-25.29,-27.39,0,*5D
1511489248.42,59606,8.31,73648.3,-3.77,-25.19,-27.19,0,*5D
1511489249.67,59607,8.31,73648.5,-3.77,-25.29,-27.29,0,*5C
1511489250.92,59608,8.31,73648.5,-3.75,-25.29,-27.45,0,*5B
1511489252.18,59609,8.31,73650.5,-3.77,-25.49,-27.61,0,*58
1511489253.39,59610,8.31,73650.5,-3.75,-25.23,-27.29,0,*52
1511489254.61,59611,8.31,73650.0,-3.75,-25.23,-27.45,0,*59
1511489255.89,59612,8.31,73652.3,-3.77,-25.45,-27.61,0,*5E
1511489257.17,59613,8.31,73652.5,-3.77,-25.45,-27.61,0,*5F
1511489258.42,59614,8.31,73650.8,-3.77,-25.35,-27.45,0,*59
1511489259.7,59615,8.31,73652.8,-3.77,-25.29,-27.35,0,*52
1511489260.9,59616,8.31,73654.8,-3.75,-25.39,-27.55,0,*54
1511489262.16,59617,8.31,73648.5,-3.77,-25.49,-27.61,0,*57
1511489263.39,59618,8.31,73650.8,-3.77,-25.19,-27.29,0,*51
1511489264.67,59619,8.31,73648.3,-3.77,-25.29,-27.35,0,*5E
1511489265.93,59620,8.31,73650.0,-3.77,-25.61,-27.61,0,*59
1511489267.2,59621,8.31,73650.3,-3.77,-25.29,-27.45,0,*52
1511489268.48,59622,8.31,73652.8,-3.77,-25.29,-27.45,0,*51
1511489269.73,59623,8.31,73648.8,-3.77,-25.19,-27.19,0,*5A
1511489270.96,59624,8.31,73652.8,-3.75,-25.09,-27.23,0,*57
1511489272.19,59625,8.31,73650.8,-3.75,-25.13,-27.39,0,*56
1511489273.42,59626,8.31,73650.5,-3.75,-25.13,-27.39,0,*55
1511489274.67,59627,8.31,73650.5,-3.75,-25.29,-27.45,0,*56
1511489275.88,59628,8.31,73646.8,-3.75,-25.39,-27.55,0,*59
1511489277.13,59629,8.31,73648.5,-3.75,-25.29,-27.23,0,*58
1511489278.33,59630,8.31,73650.5,-3.75,-24.93,-27.03,0,*52
1511489279.56,59631,8.31,73652.0,-3.75,-25.09,-27.39,0,*58
1511489280.77,59632,8.31,73650.0,-3.75,-25.23,-27.55,0,*59
1511489282.02,59633,8.31,73652.3,-3.75,-25.45,-27.61,0,*5F
1511489283.25,59634,8.31,73650.8,-3.75,-25.29,-27.55,0,*55
1511489284.46,59635,8.31,73648.8,-3.75,-25.13,-27.29,0,*56
1511489285.67,59636,8.31,73650.8,-3.75,-25.13,-27.29,0,*55
1511489286.88,59637,8.31,73652.0,-3.75,-25.09,-27.29,0,*5F
1511489288.14,59638,8.31,73648.0,-3.73,-25.09,-27.39,0,*57
1511489289.4,59639,8.31,73652.5,-3.73,-25.29,-27.55,0,*5E
1511489290.62,59640,8.31,73652.8,-3.75,-25.13,-27.29,0,*54
1511489291.82,59641,8.31,73648.0,-3.75,-25.09,-27.29,0,*5E
1511489293.03,59642,8.31,73652.3,-3.75,-25.23,-27.55,0,*5E
1511489294.23,59643,8.31,73650.0,-3.75,-25.13,-27.55,0,*5C
1511489295.49,59644,8.31,73650.0,-3.75,-25.29,-27.61,0,*55
1511489296.72,59645,8.31,73654.3,-3.75,-25.39,-27.61,0,*55
1511489297.96,59646,8.31,73650.8,-3.75,-25.39,-27.61,0,*56
1511489299.21,59647,8.31,73652.8,-3.75,-25.29,-27.61,0,*56
1511489300.42,59648,8.31,73650.0,-3.75,-24.97,-27.13,0,*58
1511489301.65,59649,8.31,73648.5,-3.75,-24.87,-27.03,0,*59
1511489302.89,59650,8.31,73648.5,-3.73,-25.09,-27.29,0,*58
1511489304.11,59651,8.31,73648.0,-3.75,-25.23,-27.45,0,*5D
1511489305.32,59652,8.31,73648.3,-3.75,-25.39,-27.55,0,*54
1511489306.56,59653,8.31,73652.3,-3.73,-25.13,-27.55,0,*5B